Home   Weather   Aalen   Past weeks

Flag for Germany Past Weather in Aalen, Baden-Württemberg, Germany — Yesterday and Last 2 Weeks

Now
77 °F

Passing clouds.


Feels Like: 79 °F
Forecast: 53 / 81 °F
Wind: 7 mph from East

Location: Niederstetten

Current Time: May 27, 2017 at 7:27:07 pm

Latest Report: May 27, 2017 at 6:20 pm


Visibility: N/A

Pressure: 30.12 "Hg

Humidity: 47%

Dew Point: 55 °F

Location of AalenLocation

Past Weather in Aalen — Graph

°F

Aalen Temperature Yesterday

Maximum temperature yesterday: 72 °F (at 3:20 pm)
Minimum temperature yesterday: 48 °F (at 4:20 am)
Average temperature yesterday: 61 °F

High & Low Weather Summary for the Past Weeks

 TemperatureHumidityPressure
High77 °F (May 27, 2:20 pm)100% (May 14, 4:20 am)30.42 "Hg (May 14, 4:20 am)
Low41 °F (May 20, 6:20 am)33% (May 16, 4:20 pm)29.65 "Hg (May 12, 6:20 pm)
Average60 °F70%30.13 "Hg
* Reported May 12 6:20 pm — May 27 6:20 pm, Aalen. Weather by CustomWeather, © 2017

Note: Actual official high and low records may vary slightly from our data, if they occured in-between our weather recording intervals... More about our weather records

Advertising

Aalen Weather History for the Previous 24 Hours

Scroll right to see more
 ConditionsComfort  
Time TempWeatherWind HumidityBarometerVisibility
6:20 pm
Sat, May 27
77 °FPassing clouds.7 mph47%30.12 "HgN/A
5:20 pm77 °FPassing clouds.7 mph42%30.12 "HgN/A
4:20 pm77 °FPassing clouds.9 mph44%30.12 "HgN/A
3:20 pm77 °FPassing clouds.9 mph44%30.12 "HgN/A
2:20 pm77 °FPassing clouds.6 mph47%30.15 "HgN/A
1:20 pm75 °FPassing clouds.9 mph47%30.15 "HgN/A
12:20 pm73 °FPassing clouds.8 mph47%30.15 "HgN/A
11:20 am72 °FPassing clouds.5 mph50%30.18 "HgN/A
10:20 am70 °FMild.7 mph57%30.18 "HgN/A
9:20 am68 °FMild.8 mph60%30.15 "HgN/A
8:20 am64 °FMild.7 mph64%30.15 "HgN/A
7:20 am61 °FCool.7 mph72%30.15 "HgN/A
6:20 am57 °FCool.6 mph77%30.15 "HgN/A
5:20 am55 °FCool.6 mph77%30.12 "HgN/A
4:20 am55 °FCool.5 mph77%30.12 "HgN/A
3:20 am55 °FCool.5 mph77%30.12 "HgN/A
2:20 am57 °FCool.7 mph72%30.12 "HgN/A
1:20 am57 °FCool.8 mph72%30.15 "HgN/A
12:20 am61 °FPassing clouds.5 mph63%30.15 "HgN/A
11:20 pm
Fri, May 26
61 °FPassing clouds.5 mph68%30.12 "HgN/A
10:20 pm61 °FPassing clouds.5 mph68%30.12 "HgN/A
9:20 pm64 °FMild.5 mph60%30.12 "HgN/A
8:20 pm68 °FMild.5 mph53%30.12 "HgN/A
7:20 pm70 °FMild.6 mph50%30.12 "HgN/A
Weather by CustomWeather, © 2017

See weather overviewHow to use our weather pages